GW2097 Weather Reports


time (UTC)temp
F
wind
direction
speed
knots
gust
knots
rain 1hr
in
rain 24hr
in
rain mn
in
humidity
%
barometer
mb
20260503050050 33 0 0.0 0.0 0.00 0.00 0.00 79 1011.8
20260503044612 34 0 0.0 0.0 0.00 0.00 0.00 78 1011.9
20260503043050 34 0 0.0 0.0 0.00 0.00 0.00 76 1012.3
20260503041550 35 0 0.0 0.0 0.00 0.00 0.00 76 1012.3
20260503040048 35 0 0.0 0.0 0.00 0.00 0.00 74 1012.1
20260503034537 36 0 0.0 0.0 0.00 0.00 0.00 73 1012.0
20260503033043 36 0 0.0 0.0 0.00 0.00 0.00 73 1012.2
20260503031544 36 0 0.0 0.0 0.00 0.00 0.00 72 1012.4
20260503024539 37 0 0.0 0.0 0.00 0.03 0.00 71 1012.3
20260503023042 37 0 0.0 0.0 0.00 0.03 0.00 69 1012.4
20260503021539 38 0 0.0 0.0 0.00 0.03 0.00 70 1012.4
20260503020037 38 0 0.0 0.0 0.00 0.03 0.00 67 1012.4
20260503014550 38 0 0.0 0.0 0.00 0.05 0.00 66 1012.4
20260503013038 38 0 0.0 0.0 0.00 0.05 0.00 66 1012.4
20260503011537 38 0 0.0 0.0 0.00 0.05 0.00 65 1012.2
20260503010038 38 0 0.0 0.0 0.00 0.05 0.00 63 1012.0
20260503004546 39 0 0.0 0.0 0.00 0.09 0.00 64 1011.9
20260503003052 39 0 0.0 0.0 0.00 0.09 0.00 62 1011.9
20260503001544 40 0 0.0 0.0 0.00 0.09 0.00 63 1011.8
20260503000045 40 0 0.0 0.0 0.00 0.09 0.00 63 1011.8
20260502234552 41 0 0.0 0.0 0.00 0.13 0.00 62 1011.7
20260502233042 41 0 0.0 0.0 0.00 0.13 0.00 59 1011.7
20260502231542 41 0 0.0 0.0 0.00 0.13 0.00 58 1011.5
20260502230043 41 0 0.0 0.0 0.00 0.13 0.00 59 1011.4
20260502224546 42 0 0.0 0.0 0.00 0.13 0.00 58 1011.4
20260502223059 42 0 0.0 0.0 0.00 0.13 0.00 57 1011.5
20260502221546 43 0 0.0 0.0 0.00 0.13 0.00 57 1011.4
20260502220042 43 0 0.0 0.0 0.00 0.13 0.00 58 1011.3
20260502214600 43 0 0.0 0.0 0.00 0.13 0.00 55 1011.2
20260502213103 44 0 0.0 0.0 0.00 0.13 0.00 55 1011.2
20260502211547 45 0 0.0 0.0 0.00 0.13 0.00 50 1011.0
20260502210039 45 0 0.0 0.0 0.00 0.13 0.00 50 1011.0
20260502204540 45 0 0.0 0.0 0.00 0.13 0.00 49 1011.2
20260502203103 45 0 0.0 0.0 0.00 0.13 0.00 48 1011.2
20260502201545 45 0 0.0 0.0 0.00 0.13 0.00 48 1011.2
20260502200051 45 0 0.0 0.0 0.00 0.13 0.00 47 1011.4
20260502194542 45 0 0.0 0.0 0.00 0.13 0.00 48 1011.7
20260502193037 45 0 0.0 0.0 0.00 0.13 0.00 48 1011.8
20260502191542 45 0 0.0 0.0 0.00 0.13 0.00 50 1012.0
20260502190044 45 0 0.0 0.0 0.00 0.13 0.00 50 1012.0
20260502184544 45 0 0.0 0.0 0.00 0.13 0.00 49 1012.2
20260502183041 45 0 0.0 0.0 0.00 0.13 0.00 50 1012.2
20260502181538 45 0 0.0 0.0 0.00 0.13 0.00 49 1012.0
20260502163059 48 0 0.0 0.0 0.00 0.13 0.00 47 1012.2
20260502161558 46 0 0.0 0.0 0.00 0.13 0.00 49 1012.0
20260502151545 44 0 0.0 0.0 0.00 0.13 0.00 54 1012.4
20260502123108 38 0 0.0 0.0 0.00 0.13 0.00 97 1012.5
20260502121543 36 0 0.0 0.0 0.00 0.13 0.00 96 1012.3
20260502114537 36 0 0.0 0.0 0.00 0.13 0.00 97 1012.3
20260502113044 36 0 0.0 0.0 0.00 0.13 0.00 97 1012.3
20260502111547 35 0 0.0 0.0 0.00 0.13 0.00 96 1012.2
20260502110043 36 0 0.0 0.0 0.00 0.13 0.00 96 1011.8
20260502104541 36 0 0.0 0.0 0.00 0.13 0.00 97 1011.8
20260502103042 36 0 0.0 0.0 0.00 0.13 0.00 97 1011.9
20260502101540 36 0 0.0 0.0 0.00 0.13 0.00 97 1012.1
20260502070055 38 0 0.0 0.0 0.00 0.13 0.00 96 1011.2
20260502064546 38 0 0.0 0.0 0.00 0.13 0.00 96 1011.1
20260502063038 38 0 0.0 0.0 0.00 0.13 0.00 95 1010.9
20260502061541 38 0 0.0 0.0 0.00 0.13 0.00 96 1011.0
20260502060050 39 0 0.0 0.0 0.00 0.13 0.00 96 1011.0
20260502054542 39 0 0.0 0.0 0.00 0.13 0.00 96 1010.8
20260502053042 39 0 0.0 0.0 0.00 0.13 0.00 96 1011.2
20260502051542 39 0 0.0 0.0 0.00 0.13 0.00 96 1010.8